Date,TemperatureHighF,TemperatureAvgF,TemperatureLowF,DewpointHighF,DewpointAvgF,DewpointLowF,HumidityHigh,HumidityAvg,HumidityLow,PressureMaxIn,PressureMinIn,WindSpeedMaxMPH,WindSpeedAvgMPH,GustSpeedMaxMPH,PrecipitationSumIn
2013-1-1,15,6,-1,8,0,-8,75,74,74,0.00,40.00,0,-999,0,0.00
2013-1-2,14,6,-5,8,-5,-100,75,71,74,0.00,40.00,0,-999,0,0.01
2013-1-3,26,4,-9,15,-40,-100,75,47,74,0.00,40.00,0,-999,0,0.00
2013-1-4,43,20,4,35,8,-100,75,71,74,0.00,40.00,0,-999,0,0.01
2013-1-5,30,14,5,23,3,-100,75,71,74,0.00,40.00,0,-999,0,0.01
2013-1-6,37,20,4,29,13,-2,75,74,74,0.00,40.00,0,-999,0,0.00
2013-1-7,34,24,15,27,7,-100,75,68,74,0.00,40.00,0,-999,0,0.00
2013-1-8,28,22,19,21,10,-100,76,72,75,0.00,40.00,0,-999,0,0.00
2013-1-9,41,25,14,34,14,-100,76,72,75,0.00,40.00,0,-999,0,0.00
2013-1-10,38,27,18,31,20,11,76,75,75,0.00,40.00,0,-999,0,0.00
2013-1-11,23,12,2,16,-7,-100,76,66,75,0.00,40.00,0,-999,0,0.01
2013-1-12,6,-2,-10,0,-15,-100,76,69,75,0.00,40.00,0,-999,0,0.01
2013-1-13,4,-10,-20,-2,-19,-100,76,72,75,0.00,40.00,0,-999,0,0.00
2013-1-14,3,-11,-22,-3,-20,-100,76,71,75,0.00,40.00,0,-999,0,0.00
2013-1-15,17,5,-9,10,-1,-15,76,75,75,0.00,40.00,0,-999,0,0.02
2013-1-16,29,17,10,23,1,-100,76,69,75,0.00,40.00,0,-999,0,0.01
2013-1-17,38,20,6,31,13,0,76,76,75,0.00,40.00,0,-999,0,0.00
2013-1-18,35,24,18,28,7,-100,76,69,75,0.00,40.00,0,-999,0,0.01
2013-1-19,36,24,13,29,12,-100,76,72,75,0.00,40.00,0,-999,0,0.00
2013-1-20,32,24,16,25,12,-100,76,72,75,0.00,40.00,0,-999,0,0.00
2013-1-21,34,23,13,27,7,-100,76,70,75,0.00,40.00,0,-999,0,0.00
2013-1-22,39,27,18,32,18,-100,76,73,75,0.00,40.00,0,-999,0,0.00
2013-1-23,44,30,16,37,23,10,76,75,75,0.00,40.00,0,-999,0,0.00
2013-1-24,38,31,29,31,19,-100,77,73,75,0.00,40.00,0,-999,0,0.01
2013-1-25,34,30,27,28,18,-100,77,74,76,0.00,40.00,0,-999,0,0.01
2013-1-26,38,32,29,31,15,-100,77,71,77,0.00,40.00,0,-999,0,0.00
2013-1-27,36,29,22,30,14,-100,77,71,77,0.00,40.00,0,-999,0,0.00
2013-1-28,28,20,8,22,4,-100,78,70,76,0.00,40.00,0,-999,0,0.00
2013-1-29,16,4,-4,10,-14,-100,76,66,76,0.00,40.00,0,-999,0,0.00
2013-1-30,20,12,3,14,-5,-100,77,69,76,0.00,40.00,0,-999,0,0.04
2013-1-31,25,21,19,19,2,-100,77,68,77,0.00,40.00,0,-999,0,0.06